Paganella, Italy

2:36 PM CET on February 21, 2017 (GMT +0100)
Paganella

Weather History for LIVP - November, 2012

Change the Weather History Date:

Thursday, November 1, 2012

  Actual Average Record
Temperature  
Mean Temperature 30 °F -  
Max Temperature 33 °F 34 °F 48 °F (2016)
Min Temperature 27 °F 26 °F 21 °F (2006)
Degree Days  
Heating Degree Days 35    
Moisture  
Dew Point 32 °F    
Average Humidity 100    
Maximum Humidity 100    
Minimum Humidity 97    
Precipitation  
Precipitation 0.02 in 0.07 in - ()
Sea Level Pressure  
Sea Level Pressure 29.36 in    
Wind  
Wind Speed 12 mph ()    
Max Wind Speed 25 mph    
Max Gust Speed 40 mph    
Visibility 0.1 miles    
Events Fog , Snow    
Averages and records for this station are not official NWS values.
T = Trace of Precipitation, MM = Missing Value Source: Averaged Metar Reports

Daily Weather History Graph

Daily Weather History Graph

Search for Another Location

Airport or City:

Trip Planner

Search our weather history database for the weather conditions in past years. The results will help you decide how hot, cold, wet, or windy it might be!

Date:

Astronomy

Nov. 01, 2012 Rise Set
Actual Time 6:57 AM CET 5:01 PM CET
Civil Twilight 6:25 AM CET 5:32 PM CET
Nautical Twilight 5:50 AM CET 6:07 PM CET
Astronomical Twilight 5:15 AM CET 6:42 PM CET
Moon 6:37 PM CET (11/1) 9:22 AM CET (11/1)
Length of Visible Light 11h 06m
Length of Day
10h 04m
Waning Gibbous, 94% of the Moon is Illuminated
Nov 1
Waning Gibbous
Nov 7
Last Quarter
Nov 13
New
Nov 20
First Quarter
Nov 28
Full

Hourly Weather History & Observations

Time (CET) Temp. Windchill Dew Point Humidity Pressure Visibility Wind Dir Wind Speed Gust Speed Precip Events Conditions
12:55 AM 30.2 °F 18.5 °F 30.2 °F 100% 29.36 in 0.3 mi East 17.3 mph 40.3 mph N/A Fog , Snow Snow
1:00 AM 31 °F - 31 °F 97%  in 0 mi East 17.3 mph - - Snow Snow
1:55 AM 32.0 °F 23.0 °F 32.0 °F 100% 29.30 in 0.3 mi East 11.5 mph 32.2 mph N/A Fog , Snow Snow
2:55 AM 30.2 °F 20.8 °F 30.2 °F 100% 29.30 in 0.3 mi East 11.5 mph 29.9 mph N/A Fog , Snow Light Snow
3:55 AM 32.0 °F 25.6 °F 32.0 °F 100% 29.27 in 0.6 mi East 6.9 mph - N/A Fog , Snow Light Snow
4:00 AM 32 °F - 32 °F 98%  in 1 mi East 6.9 mph - - Snow Light Snow
4:55 AM 32.0 °F 25.6 °F 32.0 °F 100% 29.27 in 0.1 mi East 6.9 mph - N/A Fog Light Freezing Fog
5:55 AM 32.0 °F 24.2 °F 32.0 °F 100% 29.27 in 0.0 mi ESE 9.2 mph - N/A Fog Light Freezing Fog
6:55 AM 32.0 °F 24.8 °F 32.0 °F 100% 29.27 in 0.1 mi SE 8.1 mph - N/A Fog Light Freezing Fog
7:00 AM 32 °F - 32 °F 100%  in 0 mi SE 8.1 mph - - Fog Heavy Fog
7:55 AM 32.0 °F 23.6 °F 32.0 °F 100% 29.27 in 0.2 mi SE 10.4 mph - N/A Fog , Snow Light Snow
8:55 AM 32.0 °F 24.2 °F 32.0 °F 100% 29.27 in 0.1 mi South 9.2 mph - N/A Fog , Snow Light Snow
9:55 AM 32.0 °F 24.2 °F 32.0 °F 100% 29.30 in 0.1 mi SSW 9.2 mph - N/A Fog , Snow Light Snow
10:00 AM 33 °F - 33 °F 97%  in 0 mi SSW 9.2 mph - - Snow Light Snow
10:55 AM 32.0 °F 21.6 °F 32.0 °F 100% 29.30 in 0.1 mi SW 15.0 mph - N/A Fog , Snow Light Snow
11:55 AM 32.0 °F 20.1 °F 32.0 °F 100% 29.30 in 0.1 mi WSW 19.6 mph - N/A Fog , Snow Light Snow
12:55 PM 33.8 °F 23.5 °F 33.8 °F 100% 29.33 in 0.0 mi SSW 16.1 mph - N/A Fog Fog
1:00 PM 33 °F - 33 °F 99%  in 0 mi SSW 16.1 mph - - Fog Heavy Fog
1:55 PM 32.0 °F 21.2 °F 32.0 °F 100% 29.33 in 0.0 mi SSW 16.1 mph - N/A Fog Fog
2:55 PM 32.0 °F 23.0 °F 32.0 °F 100% 29.36 in 0.0 mi SW 11.5 mph - N/A Fog Fog
3:55 PM 32.0 °F 24.8 °F 32.0 °F 100% 29.39 in 0.0 mi SW 8.1 mph - N/A Fog Fog
4:00 PM 32 °F - 32 °F 99%  in 0 mi SW 8.1 mph - - Fog Heavy Fog
4:55 PM 32.0 °F 24.2 °F 32.0 °F 100% 29.39 in 0.0 mi WSW 9.2 mph 20.7 mph N/A Fog Fog
5:55 PM 32.0 °F 23.6 °F 32.0 °F 100% 29.42 in 0.0 mi SSW 10.4 mph 21.9 mph N/A Fog Fog
6:55 PM 32.0 °F 19.8 °F 32.0 °F 100% 29.44 in 0.0 mi SSW 20.7 mph - N/A Fog Light Freezing Fog
7:00 PM 32 °F - 32 °F 98%  in 0 mi SSW 20.7 mph - - Fog Heavy Fog
7:55 PM 30.2 °F 17.1 °F 30.2 °F 100% 29.44 in 0.0 mi SSW 21.9 mph 33.4 mph N/A Fog Light Freezing Fog
8:55 PM 30.2 °F 17.8 °F 30.2 °F 100% 29.47 in 0.0 mi SSW 19.6 mph 32.2 mph N/A Fog Light Freezing Fog
9:55 PM 30.2 °F 16.5 °F 30.2 °F 100% 29.50 in 0.0 mi SSW 24.2 mph 36.8 mph N/A Fog Light Freezing Fog
10:00 PM 30 °F - 30 °F 100%  in 0 mi SSW 24.2 mph - - Fog Heavy Fog
10:55 PM 30.2 °F 17.1 °F 30.2 °F 100% 29.50 in 0.0 mi SSW 21.9 mph 35.7 mph N/A Fog Light Freezing Fog
11:55 PM 30.2 °F 16.2 °F 30.2 °F 100% 29.53 in 0.0 mi SSW 25.3 mph 39.1 mph N/A Fog Light Freezing Fog